{"data":{"norad_id":45535,"epoch":"2026-09-19T13:30:24.419232Z","epoch_age_seconds":95320,"freshness":"FRESH","line1":"1 45535U 20025E   26262.56278263  .00046651  00000+0  10262-2 0  9992","line2":"2 45535  53.0686 198.5014 0002461  83.9020 276.2266 15.43542368356012","mean_motion":15.43542368,"eccentricity":0.0002461,"inclination_deg":53.0686,"raan_deg":198.5014,"arg_perigee_deg":83.902,"mean_anomaly_deg":276.2266,"bstar":0.0010262,"rev_number":35601,"period_min":93.291899843724,"perigee_km":433.98752888704,"apogee_km":437.34128193879,"semimajor_km":6813.8014054129,"source":"CELESTRAK","updated_at":"2026-09-20T09:00:38.445616Z"}}